Back to catalog

STARLINK-11714

AliveCommunicationsVLEO
NORAD 64134·PAYLOAD·🇺🇸 United States

Launched May 24, 2025 from Cape Canaveral Space Force Station

Loading…

Next Passes (next 24 hours)

TLE

FreshSource: CelesTrak SupGP

Epoch: Sep 14, 2026, 15:22 UTC

1 64134C 25111M   26257.64076389  .00023638  00000+0  18361-3 0  2573
2 64134  43.0007 274.4819 0001610 265.0866   0.6743 15.70824357    13

Track STARLINK-11714 in real time with AllMySat

Download on the App Store